When you browse on this site, cookies collect data to enhance your experience and personalize the content and advertising you see.
Visit our Privacy Policy to learn more. By continuing to use the site, you agree to this use of cookies and data.
  • In Austria
  • List of Countries
  • For 7 days
  • Water Temperature
  • Satellite Maps
  • Weather Map
  • News
  • Weather Widgets
  • user-avatar
    Login

    Hourly Weather Bagicz

    Today, 11 December, Tuesday

    Time Temperature Precipitation Wind Pressure Humidity
    00:00 +2°C° 0.6 mm 7 mps 752 mmHg 82%
    01:00 +2°C° 0 mm 6 mps 752 mmHg 84%
    02:00 +2°C° 0.5 mm 6 mps 753 mmHg 84%
    03:00 +2°C° 0.5 mm 6 mps 753 mmHg 83%
    04:00 +2°C° 0.5 mm 6 mps 753 mmHg 82%
    05:00 +2°C° 0.2 mm 6 mps 753 mmHg 82%
    06:00 +2°C° 0.2 mm 6 mps 754 mmHg 82%
    07:00 +1°C° 0 mm 6 mps 755 mmHg 83%
    08:00 +1°C° 0.2 mm 6 mps 755 mmHg 82%
    09:00 +2°C° 0.2 mm 7 mps 756 mmHg 81%
    10:00 +2°C° 0.2 mm 7 mps 756 mmHg 80%
    11:00 +2°C° 0.2 mm 7 mps 757 mmHg 79%
    12:00 +2°C° 0.2 mm 7 mps 757 mmHg 78%
    13:00 +2°C° 0.2 mm 7 mps 758 mmHg 78%
    14:00 +2°C° 0.2 mm 6 mps 758 mmHg 79%
    15:00 +2°C° 0.2 mm 6 mps 759 mmHg 81%
    16:00 +2°C° 0.2 mm 6 mps 759 mmHg 83%
    17:00 +2°C° 0.2 mm 6 mps 760 mmHg 84%
    18:00 +1°C° 0.2 mm 6 mps 760 mmHg 86%
    19:00 +1°C° 0.2 mm 6 mps 761 mmHg 87%
    20:00 +1°C° 0.1 mm 6 mps 761 mmHg 88%
    21:00 +1°C° 0.1 mm 5 mps 762 mmHg 89%
    22:00 0°C° 0.1 mm 5 mps 763 mmHg 90%
    23:00 0°C° 0 mm 5 mps 763 mmHg 89%

    Tomorrow, 12 December, Wednesday

    Time Temperature Precipitation Wind Pressure Humidity
    00:00 0°C° 0 mm 4 mps 764 mmHg 89%
    01:00 0°C° 0 mm 4 mps 764 mmHg 88%
    02:00 0°C° 0 mm 4 mps 765 mmHg 88%
    03:00 0°C° 0 mm 4 mps 765 mmHg 87%
    04:00 +1°C° 0 mm 3 mps 765 mmHg 87%
    05:00 +1°C° 0.1 mm 3 mps 766 mmHg 87%
    06:00 +1°C° 0.1 mm 3 mps 766 mmHg 87%
    07:00 +1°C° 0.1 mm 3 mps 766 mmHg 86%
    08:00 +1°C° 0.2 mm 3 mps 767 mmHg 84%
    09:00 +2°C° 0.2 mm 3 mps 767 mmHg 83%
    10:00 +1°C° 0.2 mm 4 mps 768 mmHg 81%
    11:00 +1°C° 0.2 mm 4 mps 768 mmHg 80%
    12:00 +3°C° 0.2 mm 4 mps 768 mmHg 80%
    13:00 +3°C° 0.2 mm 4 mps 768 mmHg 80%
    14:00 +2°C° 0.1 mm 5 mps 768 mmHg 82%
    15:00 +1°C° 0.1 mm 5 mps 768 mmHg 85%
    16:00 +1°C° 0.1 mm 5 mps 768 mmHg 87%
    17:00 0°C° 0.1 mm 5 mps 769 mmHg 88%
    18:00 0°C° 0.1 mm 5 mps 769 mmHg 88%
    19:00 0°C° 0.1 mm 5 mps 769 mmHg 89%
    20:00 0°C° 0.1 mm 5 mps 769 mmHg 89%
    21:00 0°C° 0.1 mm 4 mps 769 mmHg 90%
    22:00 -1°C° 0.1 mm 4 mps 769 mmHg 90%
    23:00 -1°C° 0.1 mm 4 mps 769 mmHg 91%

    Day after tomorrow, 13 December, Thursday

    Time Temperature Precipitation Wind Pressure Humidity
    00:00 -1°C° 0.1 mm 4 mps 769 mmHg 91%
    01:00 -1°C° 0.1 mm 4 mps 769 mmHg 91%
    02:00 -1°C° 0.1 mm 4 mps 769 mmHg 91%
    03:00 0°C° 0.1 mm 3 mps 769 mmHg 91%
    04:00 0°C° 0.1 mm 3 mps 769 mmHg 91%
    05:00 0°C° 0.1 mm 3 mps 769 mmHg 91%
    06:00 0°C° 0.1 mm 3 mps 769 mmHg 91%
    07:00 0°C° 0.1 mm 3 mps 769 mmHg 92%
    08:00 0°C° 0.1 mm 3 mps 769 mmHg 90%
    09:00 -1°C° 0.1 mm 4 mps 769 mmHg 88%
    10:00 0°C° 0.1 mm 4 mps 769 mmHg 86%
    11:00 0°C° 0.1 mm 4 mps 769 mmHg 84%
    12:00 +1°C° 0.1 mm 3 mps 768 mmHg 82%
    13:00 +2°C° 0.1 mm 3 mps 768 mmHg 80%
    14:00 +1°C° 0.1 mm 3 mps 768 mmHg 82%
    15:00 +1°C° 0.1 mm 3 mps 768 mmHg 85%
    16:00 0°C° 0.1 mm 3 mps 768 mmHg 87%
    17:00 0°C° 0.1 mm 3 mps 768 mmHg 88%
    18:00 0°C° 0.1 mm 3 mps 768 mmHg 88%
    19:00 -1°C° 0.1 mm 4 mps 768 mmHg 88%
    20:00 0°C° 0.1 mm 3 mps 769 mmHg 89%
    21:00 -1°C° 0.1 mm 3 mps 769 mmHg 89%
    22:00 -1°C° 0.1 mm 3 mps 769 mmHg 89%
    23:00 -1°C° 0 mm 3 mps 769 mmHg 89%

    14 December, Friday

    Time Temperature Precipitation Wind Pressure Humidity
    00:00 -1°C° 0 mm 2 mps 769 mmHg 88%
    01:00 -1°C° 0 mm 2 mps 769 mmHg 88%
    02:00 -1°C° 0 mm 2 mps 769 mmHg 88%
    03:00 -1°C° 0 mm 2 mps 769 mmHg 89%
    04:00 -2°C° 0 mm 2 mps 769 mmHg 89%
    05:00 -2°C° 0 mm 2 mps 769 mmHg 88%
    06:00 -2°C° 0 mm 2 mps 769 mmHg 87%
    07:00 -2°C° 0 mm 2 mps 769 mmHg 85%
    08:00 -2°C° 0 mm 2 mps 770 mmHg 82%
    09:00 -2°C° 0 mm 3 mps 770 mmHg 80%
    10:00 -1°C° 0 mm 3 mps 770 mmHg 77%
    11:00 -1°C° 0 mm 3 mps 770 mmHg 74%
    12:00 -1°C° 0 mm 3 mps 770 mmHg 71%
    13:00 0°C° 0 mm 3 mps 771 mmHg 68%
    14:00 -1°C° 0 mm 3 mps 771 mmHg 71%
    15:00 -1°C° 0 mm 3 mps 771 mmHg 74%
    16:00 -2°C° 0 mm 3 mps 771 mmHg 77%
    17:00 -2°C° 0 mm 3 mps 771 mmHg 78%
    18:00 -2°C° 0 mm 3 mps 771 mmHg 79%
    19:00 -2°C° 0 mm 3 mps 772 mmHg 80%
    20:00 -2°C° 0 mm 3 mps 772 mmHg 81%
    21:00 -2°C° 0 mm 3 mps 772 mmHg 82%
    22:00 -3°C° 0 mm 4 mps 772 mmHg 83%
    23:00 -4°C° 0 mm 3 mps 772 mmHg 84%

    15 December, Saturday

    Time Temperature Precipitation Wind Pressure Humidity
    00:00 -4°C° 0 mm 3 mps 772 mmHg 85%
    01:00 -4°C° 0 mm 3 mps 772 mmHg 85%
    02:00 -4°C° 0 mm 3 mps 772 mmHg 86%
    03:00 -3°C° 0 mm 2 mps 772 mmHg 86%
    04:00 -3°C° 0 mm 2 mps 772 mmHg 87%
    05:00 -3°C° 0 mm 2 mps 773 mmHg 87%
    06:00 -3°C° 0 mm 2 mps 773 mmHg 87%
    07:00 -3°C° 0 mm 2 mps 773 mmHg 87%
    08:00 -2°C° 0 mm 2 mps 773 mmHg 85%
    09:00 -2°C° 0 mm 2 mps 774 mmHg 84%
    10:00 +1°C° 0 mm 1 mps 774 mmHg 82%
    11:00 +1°C° 0 mm 1 mps 774 mmHg 80%
    12:00 +1°C° 0 mm 1 mps 774 mmHg 79%
    13:00 +2°C° 0 mm 1 mps 774 mmHg 78%
    14:00 +1°C° 0 mm 1 mps 774 mmHg 81%
    15:00 +1°C° 0 mm 1 mps 774 mmHg 85%
    16:00 0°C° 0 mm 1 mps 774 mmHg 88%
    17:00 -2°C° 0 mm 2 mps 774 mmHg 89%
    18:00 -2°C° 0 mm 2 mps 774 mmHg 89%
    19:00 -2°C° 0 mm 3 mps 774 mmHg 90%
    20:00 -4°C° 0 mm 3 mps 774 mmHg 90%
    21:00 -4°C° 0 mm 3 mps 774 mmHg 89%
    22:00 -4°C° 0 mm 3 mps 774 mmHg 89%
    23:00 -4°C° 0 mm 3 mps 774 mmHg 88%

    16 December, Sunday

    Time Temperature Precipitation Wind Pressure Humidity
    00:00 -4°C° 0 mm 3 mps 774 mmHg 88%
    01:00 -4°C° 0 mm 3 mps 774 mmHg 87%
    02:00 -4°C° 0 mm 3 mps 774 mmHg 88%
    03:00 -4°C° 0 mm 3 mps 774 mmHg 88%
    04:00 -4°C° 0 mm 3 mps 774 mmHg 88%
    05:00 -4°C° 0 mm 3 mps 774 mmHg 89%
    06:00 -4°C° 0 mm 4 mps 773 mmHg 89%
    07:00 -4°C° 0 mm 4 mps 773 mmHg 89%
    08:00 -5°C° 0 mm 5 mps 773 mmHg 86%
    09:00 -5°C° 0 mm 5 mps 773 mmHg 84%
    10:00 -4°C° 0 mm 6 mps 773 mmHg 82%
    11:00 -4°C° 0 mm 6 mps 772 mmHg 80%
    12:00 -3°C° 0 mm 6 mps 772 mmHg 78%
    13:00 -3°C° 0 mm 6 mps 772 mmHg 76%
    14:00 -3°C° 0 mm 6 mps 771 mmHg 78%
    15:00 -4°C° 0 mm 6 mps 771 mmHg 80%
    16:00 -4°C° 0 mm 6 mps 770 mmHg 83%
    17:00 -4°C° 0 mm 6 mps 770 mmHg 82%
    18:00 -4°C° 0 mm 7 mps 770 mmHg 80%
    19:00 -4°C° 0 mm 7 mps 770 mmHg 79%
    20:00 -5°C° 0 mm 8 mps 769 mmHg 77%
    21:00 -5°C° 0 mm 8 mps 769 mmHg 75%
    22:00 -4°C° 0 mm 8 mps 768 mmHg 73%
    23:00 -4°C° 0 mm 8 mps 768 mmHg 73%
    Show more